Weather History for Bismarck, ND

Change the Weather History Date:

Friday, March 30, 2012

  Actual Average Record
Temperature  
Mean Temperature 51 °F 36 °F  
Max Temperature 73 °F 48 °F 75 °F (1966)
Min Temperature 28 °F 25 °F -9 °F (1969)
Degree Days  
Heating Degree Days 14 29  
Month to date heating degree days 665 1061  
Since 1 July heating degree days 6164 7492  
Cooling Degree Days 0 0  
Month to date cooling degree days 0 0  
Year to date cooling degree days 0 0  
Moisture  
Dew Point 35 °F    
Average Humidity 63    
Maximum Humidity 100    
Minimum Humidity 25    
Precipitation  
Precipitation 0.00 in 0.04 in 0.62 in (2009)
Month to date precipitation 0.53 0.84  
Year to date precipitation 1.31 1.78  
Snow  
Snow 0.00 in 0.20 in 11.80 in (2009)
Month to date snowfall 0.5 8.8  
Since 1 July snowfall 13.6 46.3  
Snow Depth 0.00 in    
Sea Level Pressure  
Sea Level Pressure 29.69 in    
Wind  
Wind Speed 10 mph (SE)    
Max Wind Speed 23 mph    
Max Gust Speed 29 mph    
Visibility 9 miles    
Events      
T = Trace of Precipitation, MM = Missing Value Source: NWS Daily Summary

Daily Weather History Graph

Daily Weather History Graph

Search for Another Location

Airport:

Trip Planner

Search our weather history database for the weather conditions in past years. The results will help you decide how hot, cold, wet, or windy it might be!

Date:

Astronomy

Mar. 30, 2012 Rise Set
Actual Time 7:25 AM CDT 8:10 PM CDT
Civil Twilight 6:54 AM CDT 8:40 PM CDT
Nautical Twilight 6:18 AM CDT 9:17 PM CDT
Astronomical Twilight 5:40 AM CDT 9:55 PM CDT
Moon 12:15 PM CDT (3/30) 3:05 AM CDT (3/30)
Length of Visible Light 13h 46m
Length of Day
12h 45m
Waxing Crescent, 49% of the Moon is Illuminated
Mar 30
Waxing Crescent
Mar 30
First Quarter
Apr 6
Full
Apr 13
Last Quarter
Apr 21
New

Hourly Weather History & Observations

Time (CDT) Temp. Windchill Dew Point Humidity Pressure Visibility Wind Dir Wind Speed Gust Speed Precip Events Conditions
12:52 AM 39.0 °F 34.0 °F 34.0 °F 82% 29.78 in 10.0 mi NE 6.9 mph - N/A   Clear
1:52 AM 37.0 °F 31.0 °F 34.0 °F 89% 29.79 in 10.0 mi NE 8.1 mph - N/A   Clear
2:52 AM 34.0 °F 28.8 °F 32.0 °F 92% 29.78 in 10.0 mi ENE 5.8 mph - N/A   Clear
3:52 AM 33.1 °F 25.5 °F 32.0 °F 96% 29.77 in 7.0 mi ENE 9.2 mph - N/A   Clear
4:52 AM 30.9 °F 22.8 °F 30.0 °F 96% 29.76 in 6.0 mi ENE 9.2 mph - N/A   Clear
5:52 AM 30.9 °F 24.3 °F 28.9 °F 92% 29.75 in 5.0 mi NE 6.9 mph - N/A   Clear
6:52 AM 30.0 °F 26.5 °F 28.9 °F 96% 29.77 in 5.0 mi ENE 3.5 mph - N/A   Clear
7:52 AM 30.9 °F 25.2 °F 28.9 °F 92% 29.78 in 10.0 mi ENE 5.8 mph - N/A   Clear
8:52 AM 36.0 °F 32.1 °F 34.0 °F 93% 29.78 in 10.0 mi NE 4.6 mph - N/A   Clear
9:52 AM 48.0 °F - 41.0 °F 77% 29.76 in 10.0 mi SSE 8.1 mph - N/A   Clear
10:52 AM 53.1 °F - 41.0 °F 64% 29.75 in 10.0 mi SSE 13.8 mph - N/A   Clear
11:52 AM 60.1 °F - 39.0 °F 46% 29.72 in 10.0 mi South 13.8 mph - N/A   Clear
12:52 PM 64.4 °F - 30.2 °F 28% 29.68 in 10.0 mi South 18.4 mph 24.2 mph N/A   Clear
1:52 PM 68.0 °F - 32.0 °F 26% 29.66 in 10.0 mi South 16.1 mph - N/A   Clear
2:52 PM 70.0 °F - 32.0 °F 25% 29.63 in 10.0 mi South 20.7 mph 26.5 mph N/A   Clear
3:52 PM 71.1 °F - 33.1 °F 25% 29.64 in 10.0 mi South 12.7 mph 20.7 mph N/A   Clear
4:52 PM 71.1 °F - 37.9 °F 30% 29.61 in 10.0 mi South 16.1 mph 25.3 mph N/A   Clear
5:52 PM 70.0 °F - 39.0 °F 32% 29.61 in 10.0 mi SSW 11.5 mph 19.6 mph N/A   Clear
6:52 PM 68.0 °F - 37.9 °F 33% 29.60 in 10.0 mi South 9.2 mph - N/A   Clear
7:52 PM 61.0 °F - 41.0 °F 48% 29.60 in 10.0 mi SSE 9.2 mph - N/A   Clear
8:52 PM 60.1 °F - 39.0 °F 46% 29.60 in 10.0 mi South 6.9 mph - N/A   Clear
9:52 PM 50.0 °F - 37.9 °F 63% 29.60 in 10.0 mi SE 3.5 mph - N/A   Clear
10:52 PM 48.0 °F - 39.0 °F 71% 29.60 in 10.0 mi ESE 8.1 mph - N/A   Clear
11:52 PM 48.9 °F - 39.9 °F 71% 29.58 in 10.0 mi SSE 5.8 mph - N/A   Clear